Flag for Cuba Weather past 2 weeks in Santa Clara, Cuba

Now
77 °F

Warm.


Feels Like: 78 °F
Forecast: 71 / 82 °F
Wind: 3 mph from Southwest

Location: Cienfuegos - Las Villas

Current Time: Oct 24, 2014 at 9:05:39 PM

Latest Report: Oct 24, 2014 at 7:58 PM


Visibility: N/A

Pressure: 29.80 "Hg

Humidity: 94%

Dew point: 75 °F

Location of Santa ClaraLocation

Historic Weather in Santa Clara — Graph

°F

Santa Clara temperature yesterday

Maximum temperature yesterday: 86 °F (at 2:50 PM)
Minimum temperature yesterday: 73 °F (at 2:00 AM)
Average temperature yesterday: 77 °F

Past Weeks' High & Low Weather Summary

 TemperatureHumidityPressure
High91 °F (Oct 10, 1:50 PM)100% (Oct 12, 7:50 AM)30.01 "Hg (Oct 12, 7:50 AM)
Low72 °F (Oct 15, 7:51 AM)55% (Oct 12, 1:50 PM)29.80 "Hg (Oct 23, 2:50 PM)
Average80 °F83%29.92 "Hg
* Reported Oct 10 11:52 AM — Oct 24 7:58 PM, Santa Clara, Weather by CustomWeather, © 2014

Note: Actual official high and low records may vary slightly from our data, if they occured in-between our weather recording intervals... More about our weather records

Advertising

Santa Clara weather history for previous 24 hours

 ConditionsComfort  
Time TempWeatherWind HumidityBarometerVisibility
7:58 PM
Oct 24
77 °FWarm.3 mph94%29.80 "HgN/A
6:51 PM75 °FPartly sunny.6 mph100%29.80 "Hg4 mi
5:50 PM75 °FMixture of precip. Partly sunny.6 mph100%29.80 "Hg3 mi
4:51 PM75 °FLight rain. Partly sunny.8 mph100%29.83 "Hg3 mi
3:50 PM77 °FLight rain. More clouds than sun.3 mphN/AN/A3 mi
2:51 PM75 °FRain. Partly sunny.2 mph100%29.83 "Hg2 mi
1:50 PM75 °FThunderstorms. Overcast.10 mph100%29.86 "Hg2 mi
12:50 PM79 °FLight rain. Partly sunny.3 mph94%N/A4 mi
11:50 AM79 °FPartly sunny.6 mph94%29.86 "Hg4 mi
10:58 AM79 °FWarm.6 mph94%29.86 "HgN/A
9:58 AM77 °FWarm.6 mph94%29.86 "HgN/A
8:57 AM77 °FWarm.5 mph89%29.86 "HgN/A
7:58 AM75 °FMild.5 mph94%29.86 "HgN/A
6:58 AM73 °FMild.6 mph100%29.83 "HgN/A
5:58 AM73 °FMild.5 mph100%29.80 "HgN/A
4:57 AM73 °FMild.5 mph100%29.80 "HgN/A
3:58 AM75 °FMild.5 mph94%29.83 "HgN/A
2:58 AM75 °FMild.5 mph94%29.80 "HgN/A
1:58 AM73 °FMild.2 mph100%29.83 "HgN/A
12:58 AM73 °FMild.5 mph100%29.83 "HgN/A
11:58 PM
Oct 23
75 °FMild.6 mph94%29.89 "HgN/A
10:58 PM75 °FMild.6 mph100%29.89 "HgN/A
9:58 PM75 °FMild.5 mph100%29.89 "HgN/A
Weather by CustomWeather, © 2014

See weather overviewHow to use our weather pages